| time (UTC) | temp F | wind direction | speed knots | gust knots | rain 1hr in | rain 24hr in | rain mn in | humidity % | barometer mb |
| 20260505091718 | 50 | 111 | 0.0 | 0.9 | 0.00 | 0.00 | 0.00 | 91 | 1012.2 |
| 20260505091146 | 50 | 111 | 0.0 | 0.9 | 0.00 | 0.00 | 0.00 | 91 | 1011.9 |
| 20260505090643 | 50 | 111 | 0.0 | 0.9 | 0.00 | 0.00 | 0.00 | 91 | 1011.9 |
| 20260505090142 | 50 | 111 | 0.0 | 0.9 | 0.00 | 0.00 | 0.00 | 92 | 1011.9 |
| 20260505085640 | 50 | 112 | 0.0 | 0.9 | 0.00 | 0.00 | 0.00 | 91 | 1011.9 |
| 20260505085138 | 50 | 112 | 0.0 | 0.0 | 0.00 | 0.00 | 0.00 | 91 | 1011.9 |
| 20260505084637 | 50 | 112 | 0.0 | 0.0 | 0.00 | 0.00 | 0.00 | 91 | 1011.9 |
| 20260505084136 | 50 | 112 | 0.0 | 0.0 | 0.00 | 0.00 | 0.00 | 91 | 1011.5 |
| 20260505083635 | 50 | 111 | 0.0 | 0.0 | 0.00 | 0.00 | 0.00 | 90 | 1011.9 |
| 20260505083133 | 51 | 112 | 0.0 | 0.9 | 0.00 | 0.00 | 0.00 | 90 | 1011.9 |
| 20260505082632 | 51 | 112 | 0.0 | 0.9 | 0.00 | 0.00 | 0.00 | 90 | 1011.9 |
| 20260505082131 | 51 | 112 | 0.0 | 0.9 | 0.00 | 0.00 | 0.00 | 90 | 1011.9 |
| 20260505081629 | 51 | 112 | 0.0 | 0.9 | 0.00 | 0.00 | 0.00 | 90 | 1011.9 |
| 20260505081128 | 51 | 112 | 0.0 | 0.0 | 0.00 | 0.00 | 0.00 | 90 | 1011.9 |
| 20260505080627 | 51 | 112 | 0.0 | 0.0 | 0.00 | 0.00 | 0.00 | 90 | 1011.9 |
| 20260505080126 | 51 | 112 | 0.0 | 0.0 | 0.00 | 0.00 | 0.00 | 89 | 1011.9 |
| 20260505075626 | 51 | 112 | 0.0 | 0.9 | 0.00 | 0.00 | 0.00 | 89 | 1011.5 |
| 20260505075125 | 51 | 111 | 0.0 | 0.9 | 0.00 | 0.00 | 0.00 | 88 | 1011.9 |
| 20260505074623 | 51 | 111 | 0.0 | 0.9 | 0.00 | 0.00 | 0.00 | 88 | 1011.9 |
| 20260505074122 | 52 | 112 | 0.0 | 0.9 | 0.00 | 0.00 | 0.00 | 88 | 1011.9 |
| 20260505073620 | 52 | 110 | 0.0 | 0.9 | 0.00 | 0.00 | 0.00 | 87 | 1011.5 |
| 20260505073048 | 52 | 110 | 0.0 | 0.9 | 0.00 | 0.00 | 0.00 | 87 | 1011.5 |
| 20260505072546 | 52 | 110 | 0.0 | 0.9 | 0.00 | 0.00 | 0.00 | 87 | 1011.5 |
| 20260505072045 | 52 | 134 | 0.0 | 0.9 | 0.00 | 0.00 | 0.00 | 87 | 1011.5 |
| 20260505071544 | 52 | 134 | 0.9 | 0.9 | 0.00 | 0.00 | 0.00 | 87 | 1011.5 |
| 20260505071042 | 52 | 134 | 0.0 | 0.9 | 0.00 | 0.00 | 0.00 | 87 | 1011.9 |
| 20260505070541 | 52 | 134 | 0.9 | 0.9 | 0.00 | 0.00 | 0.00 | 87 | 1011.5 |
| 20260505070040 | 52 | 111 | 0.0 | 0.9 | 0.00 | 0.00 | 0.00 | 87 | 1011.5 |
| 20260505065436 | 52 | 112 | 0.0 | 0.9 | 0.00 | 0.00 | 0.00 | 86 | 1011.5 |
| 20260505064935 | 52 | 111 | 0.0 | 0.0 | 0.00 | 0.00 | 0.00 | 86 | 1011.9 |
| 20260505064432 | 53 | 111 | 0.0 | 0.0 | 0.00 | 0.00 | 0.00 | 86 | 1011.9 |
| 20260505063931 | 53 | 112 | 0.0 | 0.0 | 0.00 | 0.00 | 0.00 | 85 | 1011.9 |
| 20260505063430 | 53 | 111 | 0.0 | 0.0 | 0.00 | 0.00 | 0.00 | 84 | 1011.9 |
| 20260505062929 | 53 | 112 | 0.0 | 0.0 | 0.00 | 0.00 | 0.00 | 84 | 1011.9 |
| 20260505062427 | 54 | 112 | 0.0 | 0.0 | 0.00 | 0.00 | 0.00 | 83 | 1011.9 |
| 20260505061926 | 54 | 112 | 0.0 | 0.0 | 0.00 | 0.00 | 0.00 | 83 | 1011.9 |
| 20260505061425 | 54 | 111 | 0.0 | 0.0 | 0.00 | 0.00 | 0.00 | 82 | 1011.9 |
| 20260505060924 | 55 | 111 | 0.0 | 0.0 | 0.00 | 0.00 | 0.00 | 81 | 1011.9 |
| 20260505060422 | 55 | 112 | 0.0 | 0.0 | 0.00 | 0.00 | 0.00 | 80 | 1011.9 |
| 20260505055921 | 55 | 111 | 0.0 | 0.0 | 0.00 | 0.00 | 0.00 | 79 | 1011.9 |
| 20260505055420 | 56 | 112 | 0.0 | 0.0 | 0.00 | 0.00 | 0.00 | 78 | 1011.9 |
| 20260505054918 | 56 | 111 | 0.0 | 0.0 | 0.00 | 0.00 | 0.00 | 78 | 1012.2 |
| 20260505054417 | 57 | 112 | 0.0 | 0.0 | 0.00 | 0.00 | 0.00 | 76 | 1011.9 |
| 20260505053916 | 57 | 112 | 0.0 | 0.9 | 0.00 | 0.00 | 0.00 | 76 | 1011.9 |
| 20260505053415 | 57 | 112 | 0.0 | 1.7 | 0.00 | 0.00 | 0.00 | 75 | 1011.9 |
| 20260505052913 | 58 | 112 | 0.0 | 1.7 | 0.00 | 0.00 | 0.00 | 75 | 1011.9 |
| 20260505052412 | 58 | 120 | 0.9 | 1.7 | 0.00 | 0.00 | 0.00 | 75 | 1011.9 |
| 20260505051838 | 58 | 132 | 0.9 | 1.7 | 0.00 | 0.00 | 0.00 | 75 | 1011.9 |
| 20260505051337 | 57 | 141 | 0.9 | 1.7 | 0.00 | 0.00 | 0.00 | 75 | 1011.5 |
| 20260505050836 | 57 | 152 | 0.9 | 1.7 | 0.00 | 0.00 | 0.00 | 76 | 1011.5 |
| 20260505050335 | 57 | 155 | 0.9 | 1.7 | 0.00 | 0.00 | 0.00 | 75 | 1011.5 |
| 20260505041549 | 57 | 145 | 0.9 | 1.7 | 0.00 | 0.00 | 0.00 | 75 | 1011.2 |
| 20260505041048 | 58 | 148 | 0.9 | 1.7 | 0.00 | 0.00 | 0.00 | 75 | 1011.5 |
| 20260505040546 | 58 | 148 | 0.9 | 1.7 | 0.00 | 0.00 | 0.00 | 75 | 1011.2 |
| 20260505040044 | 58 | 148 | 0.9 | 1.7 | 0.00 | 0.00 | 0.00 | 74 | 1011.5 |
| 20260505035511 | 58 | 148 | 0.9 | 1.7 | 0.00 | 0.00 | 0.00 | 74 | 1011.5 |
| 20260505035008 | 58 | 148 | 0.9 | 1.7 | 0.00 | 0.00 | 0.00 | 73 | 1011.5 |
| 20260505034506 | 58 | 148 | 0.9 | 0.9 | 0.00 | 0.00 | 0.00 | 73 | 1011.5 |
| 20260505033934 | 59 | 148 | 0.9 | 0.9 | 0.00 | 0.00 | 0.00 | 72 | 1011.5 |
| 20260505033433 | 59 | 148 | 0.9 | 0.9 | 0.00 | 0.00 | 0.00 | 72 | 1011.5 |
| 20260505032931 | 59 | 148 | 0.9 | 0.9 | 0.00 | 0.00 | 0.00 | 72 | 1011.5 |
| 20260505032430 | 60 | 148 | 0.0 | 0.9 | 0.00 | 0.00 | 0.00 | 71 | 1011.5 |
| 20260505031928 | 60 | 149 | 0.9 | 0.9 | 0.00 | 0.00 | 0.00 | 71 | 1011.5 |
| 20260505031427 | 60 | 149 | 0.9 | 0.9 | 0.00 | 0.00 | 0.00 | 70 | 1011.5 |
| 20260505030926 | 61 | 149 | 0.9 | 0.9 | 0.00 | 0.00 | 0.00 | 70 | 1011.5 |
| 20260505030425 | 61 | 150 | 0.0 | 1.7 | 0.00 | 0.00 | 0.00 | 68 | 1011.5 |
| 20260505025853 | 62 | 149 | 0.0 | 1.7 | 0.00 | 0.00 | 0.00 | 67 | 1011.5 |
| 20260505025352 | 62 | 149 | 0.9 | 1.7 | 0.00 | 0.00 | 0.00 | 65 | 1011.5 |
| 20260505024850 | 63 | 149 | 0.9 | 1.7 | 0.00 | 0.00 | 0.00 | 65 | 1011.5 |
| 20260505024349 | 63 | 138 | 0.9 | 1.7 | 0.00 | 0.00 | 0.00 | 64 | 1011.2 |
| 20260505023849 | 63 | 125 | 0.9 | 1.7 | 0.00 | 0.00 | 0.00 | 64 | 1011.5 |
| 20260505023347 | 63 | 139 | 0.9 | 2.6 | 0.00 | 0.00 | 0.00 | 65 | 1011.5 |
| 20260505022846 | 63 | 131 | 0.9 | 2.6 | 0.00 | 0.00 | 0.00 | 63 | 1011.2 |
| 20260505022344 | 63 | 140 | 0.9 | 2.6 | 0.00 | 0.00 | 0.00 | 64 | 1011.2 |
| 20260505021843 | 63 | 172 | 1.7 | 2.6 | 0.00 | 0.00 | 0.00 | 64 | 1011.2 |
| 20260505021309 | 64 | 136 | 0.9 | 2.6 | 0.00 | 0.00 | 0.00 | 65 | 1011.2 |
| 20260505020807 | 64 | 152 | 0.9 | 4.3 | 0.00 | 0.00 | 0.00 | 65 | 1011.2 |
| 20260505020306 | 64 | 134 | 0.9 | 4.3 | 0.00 | 0.00 | 0.00 | 64 | 1011.2 |
| 20260505015805 | 64 | 135 | 0.9 | 5.2 | 0.00 | 0.00 | 0.00 | 63 | 1011.2 |
| 20260505015159 | 64 | 192 | 1.7 | 5.2 | 0.00 | 0.00 | 0.00 | 63 | 1011.2 |
| 20260505014657 | 64 | 161 | 0.9 | 2.6 | 0.00 | 0.00 | 0.00 | 65 | 1011.2 |
| 20260505014156 | 65 | 137 | 0.9 | 1.7 | 0.00 | 0.00 | 0.00 | 64 | 1011.2 |
| 20260505013654 | 65 | 131 | 0.9 | 2.6 | 0.00 | 0.00 | 0.00 | 64 | 1011.2 |
| 20260505013153 | 66 | 144 | 0.9 | 2.6 | 0.00 | 0.00 | 0.00 | 63 | 1011.2 |
| 20260505012653 | 66 | 190 | 0.9 | 2.6 | 0.00 | 0.00 | 0.00 | 62 | 1011.2 |
| 20260505012121 | 66 | 179 | 0.9 | 2.6 | 0.00 | 0.00 | 0.00 | 62 | 1011.2 |
| 20260505011619 | 66 | 226 | 1.7 | 2.6 | 0.00 | 0.00 | 0.00 | 61 | 1010.8 |
| 20260505011117 | 67 | 165 | 0.9 | 2.6 | 0.00 | 0.00 | 0.00 | 62 | 1010.8 |
| 20260505010616 | 68 | 160 | 0.9 | 2.6 | 0.00 | 0.00 | 0.00 | 61 | 1010.8 |
| 20260505010114 | 68 | 146 | 0.9 | 1.7 | 0.00 | 0.00 | 0.00 | 60 | 1010.8 |
| 20260505005613 | 69 | 146 | 0.9 | 1.7 | 0.00 | 0.00 | 0.00 | 59 | 1010.8 |
| 20260505005112 | 69 | 215 | 0.9 | 1.7 | 0.00 | 0.00 | 0.00 | 58 | 1010.8 |
| 20260505004611 | 69 | 177 | 0.9 | 5.2 | 0.00 | 0.00 | 0.00 | 58 | 1010.8 |
| 20260505004110 | 70 | 176 | 0.9 | 5.2 | 0.00 | 0.00 | 0.00 | 58 | 1010.8 |
| 20260505003607 | 70 | 188 | 0.9 | 5.2 | 0.00 | 0.00 | 0.00 | 57 | 1010.5 |
| 20260505003105 | 71 | 180 | 0.9 | 5.2 | 0.00 | 0.00 | 0.00 | 56 | 1010.5 |
| 20260505002604 | 71 | 194 | 0.9 | 4.3 | 0.00 | 0.00 | 0.00 | 56 | 1010.5 |
| 20260505002103 | 71 | 227 | 2.6 | 7.0 | 0.00 | 0.00 | 0.00 | 55 | 1010.5 |
| 20260505001530 | 72 | 238 | 0.9 | 7.8 | 0.00 | 0.00 | 0.00 | 55 | 1010.5 |
| 20260505001029 | 72 | 163 | 0.9 | 7.8 | 0.00 | 0.00 | 0.00 | 53 | 1010.5 |
| 20260505000528 | 72 | 224 | 1.7 | 7.0 | 0.00 | 0.00 | 0.00 | 53 | 1010.5 |
| 20260504235955 | 73 | 310 | 0.9 | 4.3 | 0.00 | 0.00 | 0.00 | 53 | 1010.5 |
| 20260504235454 | 73 | 203 | 1.7 | 6.1 | 0.00 | 0.00 | 0.00 | 52 | 1010.5 |
| 20260504234953 | 73 | 200 | 0.9 | 6.1 | 0.00 | 0.00 | 0.00 | 52 | 1010.5 |
| 20260504234452 | 74 | 183 | 0.9 | 6.1 | 0.00 | 0.00 | 0.00 | 51 | 1010.5 |
| 20260504233951 | 74 | 197 | 1.7 | 6.1 | 0.00 | 0.00 | 0.00 | 50 | 1010.5 |
| 20260504233450 | 74 | 174 | 0.9 | 7.0 | 0.00 | 0.00 | 0.00 | 50 | 1010.5 |
| 20260504232949 | 74 | 211 | 1.7 | 7.8 | 0.00 | 0.00 | 0.00 | 50 | 1010.5 |
| 20260504232417 | 75 | 214 | 2.6 | 7.8 | 0.00 | 0.00 | 0.00 | 49 | 1010.5 |
| 20260504231916 | 75 | 188 | 1.7 | 6.1 | 0.00 | 0.00 | 0.00 | 50 | 1010.5 |
| 20260504231414 | 75 | 226 | 2.6 | 6.1 | 0.00 | 0.00 | 0.00 | 49 | 1010.5 |
| 20260504230913 | 75 | 222 | 1.7 | 6.1 | 0.00 | 0.00 | 0.00 | 50 | 1010.5 |
| 20260504230412 | 75 | 235 | 3.5 | 6.1 | 0.00 | 0.00 | 0.00 | 49 | 1010.2 |
| 20260504225840 | 75 | 230 | 1.7 | 7.8 | 0.00 | 0.00 | 0.00 | 50 | 1010.5 |
| 20260504225206 | 75 | 207 | 1.7 | 7.8 | 0.00 | 0.00 | 0.00 | 49 | 1010.5 |
| 20260504224705 | 75 | 228 | 2.6 | 8.7 | 0.00 | 0.00 | 0.00 | 49 | 1010.5 |
| 20260504224203 | 75 | 233 | 3.5 | 8.7 | 0.00 | 0.00 | 0.00 | 48 | 1010.5 |
| 20260504223702 | 75 | 226 | 1.7 | 7.0 | 0.00 | 0.00 | 0.00 | 48 | 1010.5 |
| 20260504223201 | 75 | 212 | 1.7 | 8.7 | 0.00 | 0.00 | 0.00 | 47 | 1010.5 |
| 20260504222700 | 76 | 236 | 2.6 | 8.7 | 0.00 | 0.00 | 0.00 | 47 | 1010.5 |
| 20260504222159 | 76 | 240 | 1.7 | 9.6 | 0.00 | 0.00 | 0.00 | 46 | 1010.5 |
| 20260504221657 | 76 | 252 | 1.7 | 9.6 | 0.00 | 0.00 | 0.00 | 46 | 1010.5 |
| 20260504221156 | 76 | 229 | 2.6 | 6.1 | 0.00 | 0.00 | 0.00 | 44 | 1010.5 |
| 20260504220655 | 76 | 230 | 3.5 | 7.0 | 0.00 | 0.00 | 0.00 | 43 | 1010.5 |
| 20260504220154 | 76 | 230 | 3.5 | 7.0 | 0.00 | 0.00 | 0.00 | 43 | 1010.5 |
| 20260504215551 | 77 | 208 | 2.6 | 7.8 | 0.00 | 0.00 | 0.00 | 43 | 1010.5 |
| 20260504215049 | 77 | 206 | 2.6 | 8.7 | 0.00 | 0.00 | 0.00 | 43 | 1010.5 |
| 20260504214547 | 77 | 231 | 1.7 | 8.7 | 0.00 | 0.00 | 0.00 | 44 | 1010.5 |
| 20260504214046 | 77 | 239 | 2.6 | 9.6 | 0.00 | 0.00 | 0.00 | 43 | 1010.5 |
| 20260504213544 | 78 | 230 | 3.5 | 14.8 | 0.00 | 0.00 | 0.00 | 43 | 1010.5 |
| 20260504213044 | 78 | 221 | 1.7 | 14.8 | 0.00 | 0.00 | 0.00 | 45 | 1010.5 |
| 20260504212542 | 78 | 235 | 4.3 | 14.8 | 0.00 | 0.00 | 0.00 | 42 | 1010.5 |
| 20260504212040 | 78 | 228 | 3.5 | 14.8 | 0.00 | 0.00 | 0.00 | 45 | 1010.5 |
| 20260504211540 | 78 | 163 | 1.7 | 8.7 | 0.00 | 0.00 | 0.00 | 43 | 1010.5 |
| 20260504211007 | 78 | 241 | 2.6 | 8.7 | 0.00 | 0.00 | 0.00 | 43 | 1010.5 |
| 20260504210506 | 78 | 228 | 3.5 | 9.6 | 0.00 | 0.00 | 0.00 | 45 | 1010.8 |
| 20260504205933 | 78 | 228 | 4.3 | 9.6 | 0.00 | 0.00 | 0.00 | 45 | 1010.8 |
| 20260504205258 | 77 | 245 | 1.7 | 4.3 | 0.00 | 0.00 | 0.00 | 45 | 1010.8 |
| 20260504204756 | 77 | 104 | 1.7 | 7.8 | 0.00 | 0.00 | 0.00 | 46 | 1010.8 |
| 20260504204255 | 77 | 114 | 1.7 | 8.7 | 0.00 | 0.00 | 0.00 | 46 | 1010.8 |
| 20260504203754 | 78 | 92 | 1.7 | 8.7 | 0.00 | 0.00 | 0.00 | 46 | 1010.8 |
| 20260504203253 | 78 | 244 | 3.5 | 6.1 | 0.00 | 0.00 | 0.00 | 44 | 1010.8 |
| 20260504202751 | 78 | 123 | 1.7 | 6.1 | 0.00 | 0.00 | 0.00 | 49 | 1011.2 |
| 20260504202250 | 77 | 248 | 2.6 | 7.0 | 0.00 | 0.00 | 0.00 | 46 | 1011.2 |
| 20260504201749 | 77 | 247 | 4.3 | 7.0 | 0.00 | 0.00 | 0.00 | 46 | 1011.2 |
| 20260504201246 | 77 | 196 | 1.7 | 6.1 | 0.00 | 0.00 | 0.00 | 48 | 1011.2 |
| 20260504200746 | 77 | 105 | 2.6 | 6.1 | 0.00 | 0.00 | 0.00 | 48 | 1011.2 |
| 20260504200244 | 77 | 115 | 1.7 | 7.0 | 0.00 | 0.00 | 0.00 | 48 | 1011.5 |
| 20260504195743 | 77 | 200 | 0.9 | 7.0 | 0.00 | 0.00 | 0.00 | 50 | 1011.5 |
| 20260504195242 | 77 | 226 | 1.7 | 6.1 | 0.00 | 0.00 | 0.00 | 49 | 1011.5 |
| 20260504194740 | 77 | 139 | 1.7 | 7.0 | 0.00 | 0.00 | 0.00 | 48 | 1011.9 |
| 20260504194239 | 77 | 233 | 4.3 | 7.0 | 0.00 | 0.00 | 0.00 | 46 | 1011.9 |
| 20260504193738 | 77 | 150 | 1.7 | 7.8 | 0.00 | 0.00 | 0.00 | 49 | 1011.9 |
| 20260504193236 | 77 | 115 | 2.6 | 7.8 | 0.00 | 0.00 | 0.00 | 49 | 1011.9 |
| 20260504192735 | 77 | 183 | 1.7 | 5.2 | 0.00 | 0.00 | 0.00 | 50 | 1011.9 |
| 20260504192234 | 77 | 257 | 1.7 | 6.1 | 0.00 | 0.00 | 0.00 | 49 | 1012.2 |
| 20260504191733 | 77 | 232 | 2.6 | 6.1 | 0.00 | 0.00 | 0.00 | 49 | 1012.2 |
| 20260504191231 | 76 | 221 | 1.7 | 6.1 | 0.00 | 0.00 | 0.00 | 49 | 1012.2 |
| 20260504190656 | 76 | 240 | 2.6 | 6.1 | 0.00 | 0.00 | 0.00 | 49 | 1012.2 |
| 20260504190154 | 76 | 224 | 1.7 | 7.0 | 0.00 | 0.00 | 0.00 | 48 | 1012.5 |
| 20260504185653 | 76 | 219 | 2.6 | 7.0 | 0.00 | 0.00 | 0.00 | 49 | 1012.5 |
| 20260504185152 | 76 | 220 | 3.5 | 7.0 | 0.00 | 0.00 | 0.00 | 50 | 1012.5 |
| 20260504184649 | 76 | 270 | 1.7 | 7.8 | 0.00 | 0.00 | 0.00 | 49 | 1012.5 |
| 20260504184149 | 77 | 88 | 3.5 | 7.8 | 0.00 | 0.00 | 0.00 | 47 | 1012.5 |
| 20260504183648 | 77 | 336 | 1.7 | 7.8 | 0.00 | 0.00 | 0.00 | 48 | 1012.5 |
| 20260504183147 | 77 | 236 | 4.3 | 7.8 | 0.00 | 0.00 | 0.00 | 48 | 1012.5 |
| 20260504182646 | 77 | 242 | 5.2 | 7.8 | 0.00 | 0.00 | 0.00 | 47 | 1012.5 |
| 20260504182144 | 77 | 230 | 2.6 | 6.1 | 0.00 | 0.00 | 0.00 | 49 | 1012.9 |
| 20260504181610 | 77 | 90 | 3.5 | 7.0 | 0.00 | 0.00 | 0.00 | 47 | 1012.9 |
| 20260504181109 | 76 | 221 | 2.6 | 7.0 | 0.00 | 0.00 | 0.00 | 49 | 1012.9 |
| 20260504180608 | 76 | 83 | 2.6 | 7.0 | 0.00 | 0.00 | 0.00 | 47 | 1012.9 |
| 20260504180107 | 76 | 82 | 1.7 | 7.0 | 0.00 | 0.00 | 0.00 | 48 | 1013.2 |
| 20260504175606 | 76 | 290 | 0.9 | 7.0 | 0.00 | 0.00 | 0.00 | 50 | 1013.2 |
| 20260504175105 | 76 | 189 | 1.7 | 7.0 | 0.00 | 0.00 | 0.00 | 51 | 1013.2 |
| 20260504174603 | 76 | 229 | 1.7 | 4.3 | 0.00 | 0.00 | 0.00 | 50 | 1013.2 |
| 20260504174102 | 75 | 273 | 0.9 | 7.8 | 0.00 | 0.00 | 0.00 | 51 | 1013.2 |
| 20260504173559 | 74 | 178 | 1.7 | 7.8 | 0.00 | 0.00 | 0.00 | 49 | 1013.5 |
| 20260504173058 | 75 | 253 | 1.7 | 7.8 | 0.00 | 0.00 | 0.00 | 47 | 1013.5 |
| 20260504172557 | 75 | 254 | 3.5 | 7.8 | 0.00 | 0.00 | 0.00 | 52 | 1013.5 |
| 20260504172056 | 74 | 165 | 1.7 | 4.3 | 0.00 | 0.00 | 0.00 | 50 | 1013.9 |
| 20260504171554 | 74 | 213 | 0.9 | 4.3 | 0.00 | 0.00 | 0.00 | 50 | 1013.9 |
| 20260504170951 | 73 | 287 | 1.7 | 6.1 | 0.00 | 0.00 | 0.00 | 51 | 1013.9 |
| 20260504170450 | 73 | 79 | 1.7 | 6.1 | 0.00 | 0.00 | 0.00 | 51 | 1013.9 |
| 20260504160405 | 69 | 185 | 0.9 | 4.3 | 0.00 | 0.00 | 0.00 | 55 | 1014.9 |
| 20260504150716 | 66 | 200 | 1.7 | 4.3 | 0.00 | 0.00 | 0.00 | 59 | 1015.9 |
| 20260504150214 | 65 | 237 | 0.9 | 4.3 | 0.00 | 0.00 | 0.00 | 62 | 1015.9 |
| 20260504141026 | 60 | 181 | 0.0 | 2.6 | 0.00 | 0.00 | 0.00 | 72 | 1016.6 |
| 20260504140453 | 59 | 276 | 0.9 | 2.6 | 0.00 | 0.00 | 0.00 | 73 | 1016.6 |
| 20260504130338 | 53 | 251 | 0.9 | 1.7 | 0.00 | 0.00 | 0.00 | 83 | 1016.6 |
| 20260504120250 | 44 | 117 | 0.0 | 0.0 | 0.00 | 0.00 | 0.00 | 95 | 1016.3 |
| 20260504110235 | 41 | 117 | 0.0 | 0.0 | 0.00 | 0.00 | 0.00 | 95 | 1015.9 |
| 20260504100147 | 41 | 117 | 0.0 | 0.0 | 0.00 | 0.00 | 0.00 | 94 | 1015.9 |